WetterOnline ( http://www.wetteronline.de )

Wetter aktuell Kyritz

Aktuelles Wetter: Kyritz (42m)

6-stündlich | Neueste Meldungen
Ortszeit Temperatur Wetter
Fr, 20.04. 20:00 21.4° C wolkig
Fr, 20.04. 14:00 26.4° C wolkig
Fr, 20.04. 8:00 14.1° C wolkig
Fr, 20.04. 2:00 13.7° C wolkig
Do, 19.04. 20:00 20.8° C -
Do, 19.04. 14:00 22.4° C wolkenlos
Do, 19.04. 8:00 12.5° C leicht bewölkt
Do, 19.04. 2:00 10.0° C wolkig
Ortszeit Temperatur Wetter
Sa, 21.04. 1:30 14.1° C leicht bewölkt
Sa, 21.04. 1:20 14.1° C leicht bewölkt
Sa, 21.04. 1:10 15.7° C bedeckt
Sa, 21.04. 1:00 14.8° C fast wolkenlos
Sa, 21.04. 0:50 14.8° C fast wolkenlos
Sa, 21.04. 0:40 14.6° C fast wolkenlos
Sa, 21.04. 0:30 15.1° C leicht bewölkt
Sa, 21.04. 0:00 15.4° C leicht bewölkt
Fr, 20.04. 23:30 18.3° C wolkenlos
Fr, 20.04. 23:00 19.9° C leicht bewölkt
Fr, 20.04. 22:30 20.2° C bedeckt
Ortszeit Relative Feuchte Sichtweite
Fr, 20.04. 20:00 62% 29 km
Fr, 20.04. 14:00 40% 50 km
Fr, 20.04. 8:00 87% 14 km
Fr, 20.04. 2:00 90% 30 km
Do, 19.04. 20:00 64% 40 km
Do, 19.04. 14:00 48% 23 km
Do, 19.04. 8:00 82% 15 km
Do, 19.04. 2:00 94% 12 km
Ortszeit Relative Feuchte Sichtweite
Sa, 21.04. 1:30 80% 16 km
Sa, 21.04. 1:20 80% -
Sa, 21.04. 1:10 70% -
Sa, 21.04. 1:00 74% 18 km
Sa, 21.04. 0:50 74% -
Sa, 21.04. 0:40 78% -
Sa, 21.04. 0:30 76% 21 km
Sa, 21.04. 0:00 74% 25 km
Fr, 20.04. 23:30 59% 29 km
Fr, 20.04. 23:00 52% 35 km
Fr, 20.04. 22:30 51% 60 km
Ortszeit Niederschlagsmenge Niederschlagsart
Fr, 20.04. 20:00 0.0 l/m2 in 12 Std. -
Fr, 20.04. 14:00 0.0 l/m2 in 6 Std. -
Fr, 20.04. 8:00 0.0 l/m2 in 12 Std. -
Fr, 20.04. 2:00 0.0 l/m2 in 6 Std. -
Do, 19.04. 20:00 0.0 l/m2 in 12 Std. -
Do, 19.04. 14:00 0.0 l/m2 in 6 Std. -
Do, 19.04. 8:00 0.0 l/m2 in 12 Std. -
Do, 19.04. 2:00 0.0 l/m2 in 6 Std. -
Ortszeit Niederschlagsmenge Niederschlagsart
Sa, 21.04. 1:30 0.0 l/m2 in 1 Std. -
Sa, 21.04. 1:20 keine Meldung -
Sa, 21.04. 1:10 keine Meldung -
Sa, 21.04. 1:00 0.0 l/m2 in 1 Std. -
Sa, 21.04. 0:50 keine Meldung -
Sa, 21.04. 0:40 keine Meldung -
Sa, 21.04. 0:30 0.0 l/m2 in 1 Std. -
Sa, 21.04. 0:00 0.0 l/m2 in 1 Std. -
Fr, 20.04. 23:30 0.0 l/m2 in 1 Std. -
Fr, 20.04. 23:00 0.0 l/m2 in 1 Std. -
Fr, 20.04. 22:30 0.0 l/m2 in 1 Std. -
Ortszeit Stärke Spitze Richtung
km/h Bft. km/h Grad Sektor
Fr, 20.04. 20:00 9 2 31 230° SW
Fr, 20.04. 14:00 14 3 25 190° S
Fr, 20.04. 8:00 11 2 14 110° O
Fr, 20.04. 2:00 4 1 18 100° O
Do, 19.04. 20:00 6 1 19 110° O
Do, 19.04. 14:00 7 2 18 90° O
Do, 19.04. 8:00 6 1 9 90° O
Do, 19.04. 2:00 6 1 13 50° NO
Ortszeit Stärke Spitze Richtung
km/h Bft. km/h Grad Sektor
Sa, 21.04. 1:30 7 2 14 300° NW
Sa, 21.04. 1:20 7 2 - 300° NW
Sa, 21.04. 1:10 9 2 - 300° NW
Sa, 21.04. 1:00 9 2 15 310° NW
Sa, 21.04. 0:50 9 2 - 310° NW
Sa, 21.04. 0:40 9 2 - 310° NW
Sa, 21.04. 0:30 7 2 14 310° NW
Sa, 21.04. 0:00 6 1 13 300° NW
Fr, 20.04. 23:30 7 2 13 320° NW
Fr, 20.04. 23:00 11 2 18 330° NW
Fr, 20.04. 22:30 11 2 18 310° NW
Ortszeit Untergrenze Bedeckung Gattung
total tief tief mittel hoch
Fr, 20.04. 20:00 - 8/8 - - - -
Fr, 20.04. 14:00 2700 m 8/8 2/8 - - -
Fr, 20.04. 8:00 3300 m 8/8 6/8 - - -
Fr, 20.04. 2:00 10500 m 8/8 0/8 - - -
Do, 19.04. 20:00 - - - - - -
Do, 19.04. 14:00 - 0/8 0/8 - - -
Do, 19.04. 8:00 3300 m 2/8 2/8 - - -
Do, 19.04. 2:00 9000 m 8/8 0/8 - - -
Ortszeit Bedeckungsgrad in Achtel und Wolkenuntergrenze
Sa, 21.04. 1:30 1(2100m) 4(3900m)
Sa, 21.04. 1:20 1(2100m) 4(3900m)
Sa, 21.04. 1:10 9 9 9
Sa, 21.04. 1:00 1(2100m) 9 9
Sa, 21.04. 0:50 1(2100m)
Sa, 21.04. 0:40 1(3900m)
Sa, 21.04. 0:30 1(2400m)
Sa, 21.04. 0:00 1(2400m) 2(3900m)
Fr, 20.04. 23:30 1(2400m)
Fr, 20.04. 23:00 1(2100m)
Fr, 20.04. 22:30 9 9 9
Ortszeit Luftdruck NN (hPa) Tendenz (hPa in 3 Std.)
Fr, 20.04. 20:00 1019 - 1,7
Fr, 20.04. 14:00 1023 - 1,6
Fr, 20.04. 8:00 1026 - 1,0
Fr, 20.04. 2:00 1028 - 1,1
Do, 19.04. 20:00 1029 - 1,2
Do, 19.04. 14:00 1031 - 1,0
Do, 19.04. 8:00 1032 + 0,4
Do, 19.04. 2:00 1033 + 0,6
Ortszeit Luftdruck NN (hPa) Tendenz (hPa in 3 Std.)
Sa, 21.04. 1:30 1019 - 0,2
Sa, 21.04. 1:20 1019 keine Meldung
Sa, 21.04. 1:10 1019 keine Meldung
Sa, 21.04. 1:00 1019 0,0
Sa, 21.04. 0:50 1019 keine Meldung
Sa, 21.04. 0:40 1019 keine Meldung
Sa, 21.04. 0:30 1019 0,0
Sa, 21.04. 0:00 1019 + 0,2
Fr, 20.04. 23:30 1019 + 0,4
Fr, 20.04. 23:00 1019 + 0,6
Fr, 20.04. 22:30 1019 + 0,4
Ortszeit Schneehöhe (cm)
Fr, 20.04. 20:00 -
Fr, 20.04. 14:00 0
Fr, 20.04. 8:00 0
Fr, 20.04. 2:00 0
Do, 19.04. 20:00 0
Do, 19.04. 14:00 0
Do, 19.04. 8:00 0
Do, 19.04. 2:00 0
Ortszeit Schneehöhe (cm)
Sa, 21.04. 1:30 -
Sa, 21.04. 1:20 -
Sa, 21.04. 1:10 -
Sa, 21.04. 1:00 0
Sa, 21.04. 0:50 -
Sa, 21.04. 0:40 0
Sa, 21.04. 0:30 -
Sa, 21.04. 0:00 0
Fr, 20.04. 23:30 -
Fr, 20.04. 23:00 -
Fr, 20.04. 22:30 -
Link zu dieser Seite / Seite empfehlen

Das Wetter in ...